Flag for Germany Weather past 2 weeks in Altenburg, Thuringia, Germany

Now
65 °F

Overcast.


Feels Like: 65 °F
Forecast: 54 / 92 °F
Wind: 6 mph from Northwest

Location: Gera-Leumnitz

Current Time: Jul 6, 2015 at 10:05:01 AM

Latest Report: Jul 6, 2015 at 9:00 AM


Visibility: 25 mi

Pressure: 30.13 "Hg

Humidity: 78%

Dew point: 58 °F

Location of AltenburgLocation

Historic Weather in Altenburg — Graph

°F

Altenburg temperature yesterday

Maximum temperature yesterday: 92 °F (at 2:00 PM)
Minimum temperature yesterday: 70 °F (at 5:00 AM)
Average temperature yesterday: 82 °F

Past Weeks' High & Low Weather Summary

 TemperatureHumidityPressure
High94 °F (Jul 4, 5:00 PM)99% (Jun 23, 3:00 AM)30.24 "Hg (Jun 23, 3:00 AM)
Low46 °F (Jun 25, 4:00 AM)28% (Jul 4, 4:00 PM)29.64 "Hg (Jun 23, 4:00 AM)
Average66 °F69%30.08 "Hg
* Reported Jun 21 9:00 AM — Jul 6 9:00 AM, Altenburg, Weather by CustomWeather, © 2015

Note: Actual official high and low records may vary slightly from our data, if they occured in-between our weather recording intervals... More about our weather records

Advertising

Altenburg weather history for previous 24 hours

 ConditionsComfort  
Time TempWeatherWind HumidityBarometerVisibility
9:00 AM
Mon, Jul 6
65 °FOvercast.6 mph78%30.13 "Hg25 mi
8:00 AM63 °FLow clouds.5 mph88%30.11 "Hg16 mi
7:00 AM64 °FDrizzle. Low clouds.6 mph96%30.08 "Hg3 mi
6:00 AM66 °FLow clouds.5 mph95%30.05 "Hg5 mi
5:00 AM66 °FOvercast.3 mph98%30.01 "Hg3 mi
4:00 AM67 °FDrizzle. Low clouds.5 mph96%30.01 "Hg5 mi
3:00 AM67 °FLow clouds.6 mph94%29.99 "Hg7 mi
2:00 AM67 °FOvercast.3 mph92%29.97 "Hg11 mi
1:00 AM70 °FLight rain. Low clouds.6 mph89%29.96 "Hg8 mi
12:00 AM73 °FOvercast.7 mph76%29.96 "Hg14 mi
11:00 PM
Sun, Jul 5
84 °FPassing clouds.6 mph42%29.84 "Hg16 mi
10:00 PM79 °FWarm.3 mph55%29.85 "Hg11 mi
9:00 PM81 °FPassing clouds.5 mph56%29.85 "Hg18 mi
8:00 PM83 °FScattered clouds.3 mph54%29.86 "Hg19 mi
7:00 PM86 °FSunny.5 mph45%29.88 "Hg17 mi
6:00 PM88 °FSunny.6 mph44%29.90 "Hg12 mi
5:00 PM88 °FScattered clouds.8 mph46%29.93 "Hg22 mi
4:00 PM90 °FPartly sunny.3 mph50%29.93 "Hg25 mi
3:00 PM89 °FPartly sunny.2 mph43%29.95 "Hg22 mi
2:00 PM92 °FScattered clouds.2 mph37%29.96 "Hg22 mi
1:00 PM90 °FScattered clouds.2 mph44%29.98 "Hg22 mi
12:00 PM88 °FPassing clouds.1 mph45%29.99 "Hg22 mi
11:00 AM85 °FPassing clouds.2 mph49%30.01 "Hg22 mi
10:00 AM84 °FPassing clouds.1 mph52%30.02 "Hg22 mi
Weather by CustomWeather, © 2015

See weather overviewHow to use our weather pages